[[{"header":{"parameterUnit":"m.s-1","parameterCategory":2,"la1":30.2991,"la2":30.254,"lo1":-89.0895,"lo2":-89.0444,"dy":0.0017,"dx":0.0017,"nx":28,"ny":28,"refTime":"2024-06-25T03:00:00:Z","depth":"0","parameterNumber":2,"parameterNumberName":"U-component_of_CURRENTS"},"data":[0,0,0,0,0,0,0,0,0,0,0,0,0,0,0,0,0,0,0,0,0,0,0,0,0,0,0,0,0,0,0,0,0,0,0,0,0,0,0,0,0,0,0,0,0,0,0,0,0,0,0,0,0,0,0,0,0,0,0.4796,0.4797,0,0.4885,0.4886,0.4887,0.4906,0.4905,0.4905,0.4904,0.4987,0.499,0.4992,0,0,0,0,0,0,0,0,0,0,0,0,0,0.4662,0.4664,0.4796,0.4798,0.4799,0.4885,0.4886,0.4887,0.4906,0.4905,0.4905,0.4904,0.4986,0.4989,0.4992,0,0,0,0,0,0,0,0,0,0,0,0,0,0.4731,0.4665,0.4796,0.482,0.4823,0.4885,0.4886,0.4887,0.4906,0.4905,0.4905,0.4904,0.4985,0.4989,0.4993,0.5032,0,0,0.5005,0.5007,0,0,0,0,0,0,0,0,0.4727,0.4735,0.4815,0.4818,0.4822,0.4885,0.4869,0.4936,0.4906,0.4873,0.4904,0.4904,0.4954,0.4961,0.4977,0.5036,0.504,0.5005,0.5008,0.501,0.5011,0,0,0,0,0,0,0,0.4722,0.4732,0.483,0.4817,0.4821,0.4833,0.4841,0.4882,0.4915,0.4876,0.4878,0.4891,0.4955,0.4973,0.4979,0.5041,0.5005,0.5009,0.5011,0.5013,0.5092,0.5092,0,0,0,0,0,0,0.4715,0.4728,0.4827,0.4833,0.4774,0.4836,0.4845,0.4864,0.4915,0.4922,0.4891,0.4891,0.4966,0.4974,0.4982,0.5015,0.501,0.5013,0.5016,0.5093,0.5092,0.5092,0,0,0,0,0,0,0.4712,0.4723,0.4823,0.4783,0.4796,0.4839,0.486,0.4866,0.4884,0.4927,0.4934,0.4902,0.4966,0.4976,0.5008,0.5019,0.5015,0.5019,0.5093,0.5093,0.5092,0.5092,0,0,0,0,0,0,0.4707,0.4722,0.4733,0.4783,0.4799,0.4878,0.4861,0.4869,0.4894,0.4895,0.4939,0.4946,0.4966,0.5002,0.5012,0.5024,0.5022,0.5093,0.5093,0.5092,0.5093,0.5092,0.5091,0,0,0,0,0,0.4702,0.4734,0.4734,0.4746,0.4814,0.488,0.489,0.4915,0.4895,0.4923,0.4927,0.4945,0.5005,0.5005,0.5017,0.5031,0.5094,0.5093,0.5092,0.5093,0.5092,0.5091,0,0,0,0,0,0,0.4691,0.4741,0.4741,0.4787,0.4833,0.4884,0.4913,0.4917,0.4942,0.4935,0.4953,0.4961,0.5003,0.5008,0.5007,0.5048,0.5048,0.505,0.5045,0.5044,0.5044,0.5134,0.5025,0,0,0,0,0,0.4691,0.4724,0.4772,0.4811,0.4833,0.4866,0.4892,0.491,0.4939,0.495,0.4971,0.4984,0.5011,0.5018,0.5057,0.5077,0.5164,0.5087,0.5086,0.5086,0.5164,0.5264,0.5282,0.509,0.509,0.509,0,0,0.4696,0.4729,0.4747,0.481,0.4843,0.4895,0.4881,0.4931,0.4968,0.4956,0.5,0.5004,0.5021,0.5051,0.5065,0.5052,0.5182,0.5085,0.5085,0.5166,0.5266,0.5286,0.5303,0.509,0.509,0.509,0,0,0.4742,0.4754,0.4802,0.4838,0.4894,0.4919,0.4931,0.4979,0.4994,0.5031,0.5025,0.5042,0.5069,0.5091,0.51,0.5121,0.5192,0.5098,0.5156,0.5248,0.5267,0.5285,0.5415,0.5444,0.5076,0.5076,0.5076,0,0.4751,0.4812,0.4828,0.4884,0.492,0.4929,0.499,0.5012,0.5059,0.5079,0.505,0.5103,0.5107,0.5154,0.5154,0.5129,0.5205,0.5153,0.5254,0.5273,0.5291,0.542,0.5453,0.5076,0.5076,0.5076,0.5076,0,0.4835,0.4877,0.4911,0.4978,0.5017,0.5073,0.5104,0.5133,0.513,0.5147,0.5196,0.5194,0.5233,0.5201,0.5191,0.5292,0.5314,0.5258,0.5267,0.5312,0.5443,0.5477,0.5076,0.5076,0.5076,0.5076,0,0,0.4885,0.4958,0.497,0.5005,0.5069,0.5114,0.5169,0.5233,0.5274,0.5282,0.5348,0.5356,0.5352,0.5367,0.5333,0.5395,0.5562,0.5383,0.5388,0.5537,0.5815,0.5789,0.5824,0.5515,0.5521,0.5526,0.5855,0,0.4954,0.5054,0.5079,0.5169,0.522,0.524,0.5297,0.5341,0.5363,0.5423,0.5416,0.5471,0.5408,0.5424,0.548,0.5558,0.5654,0.5483,0.5734,0.5745,0.5733,0.5862,0.558,0.5847,0.5889,0.5894,0.5899,0,0.5035,0.5089,0.5184,0.526,0.5287,0.5337,0.5423,0.5475,0.5542,0.5564,0.5604,0.5611,0.5716,0.5638,0.5849,0.5741,0.5819,0.5863,0.5874,0.5896,0.5782,0.5808,0.5908,0.573,0.5951,0.5947,0.5943,0,0.5058,0.5163,0.5235,0.5262,0.535,0.5396,0.5446,0.5514,0.5568,0.5668,0.5725,0.5815,0.5892,0.5996,0.6088,0.5994,0.6335,0.6199,0.6262,0.6262,0.6106,0.6081,0.6092,0.6399,0.6398,0.6398,0.6397,0,0.5115,0.5167,0.5248,0.5284,0.5363,0.5425,0.5516,0.5568,0.5674,0.5739,0.5802,0.5885,0.5991,0.6151,0.6207,0.6383,0.6444,0.637,0.6369,0.6092,0.6064,0.5968,0.5894,0.641,0.6407,0.6405,0.6403,0,0.5099,0.5165,0.5238,0.5338,0.5368,0.5417,0.5532,0.5592,0.5714,0.5813,0.5861,0.6021,0.6224,0.6348,0.6559,0.6555,0.653,0.674,0.6437,0.6394,0.622,0.6156,0.61,0.5928,0.6872,0.6874,0.6875,0,0.5083,0.5127,0.5238,0.5271,0.5308,0.5394,0.5444,0.5578,0.5645,0.5864,0.5912,0.6161,0.6273,0.662,0.6702,0.6883,0.6611,0.6697,0.6454,0.6263,0.6192,0.5935,0.5773,0.625,0.6247,0.6243,0.6241,0,0.5032,0.5082,0.5138,0.5206,0.5264,0.5334,0.5424,0.5488,0.5644,0.5754,0.5915,0.6045,0.6378,0.6424,0.6684,0.6723,0.6354,0.6639,0.6497,0.5805,0.5474,0.5285,0.6016,0.6213,0.6216,0.6218,0.6219,0.622,0.4963,0.4982,0.5058,0.5118,0.5176,0.5228,0.5236,0.5348,0.5442,0.5545,0.5787,0.5903,0.6077,0.6394,0.6422,0.6273,0.626,0.6033,0.6016,0.5808,0.5494,0.6214,0.6352,0.6356,0.6359,0.6361,0.6364,0,0.4838,0.4889,0.4953,0.5001,0.5015,0.5095,0.5171,0.5143,0.5164,0.5359,0.5481,0.5605,0.5673,0.5776,0.5804,0.5659,0.5371,0.5481,0.5008,0.4911,0.561,0.5428,0.53,0.53,0.53,0.53,0.53,0.5301,0.477,0.4794,0.4848,0.4828,0.4851,0.4788,0.4798,0.4766,0.4856,0.4845,0.4892,0.5057,0.5251,0.5357,0.5211,0.51,0.4722,0.4538,0.4569,0.5008,0.5053,0.5095,0.4903,0.4667,0.4666,0.3585,0.3577,0.3571]},{"header":{"parameterUnit":"m.s-1","parameterCategory":2,"la1":30.2991,"la2":30.254,"lo1":-89.0895,"lo2":-89.0444,"dy":0.0017,"dx":0.0017,"nx":28,"ny":28,"refTime":"2024-06-25T03:00:00:Z","depth":"0","parameterNumber":3,"parameterNumberName":"V-component_of_CURRENTS"},"data":[0,0,0,0,0,0,0,0,0,0,0,0,0,0,0,0,0,0,0,0,0,0,0,0,0,0,0,0,0,0,0,0,0,0,0,0,0,0,0,0,0,0,0,0,0,0,0,0,0,0,0,0,0,0,0,0,0,0,-0.1358,-0.1358,0,-0.1467,-0.1468,-0.147,-0.1558,-0.1559,-0.156,-0.156,-0.165,-0.1651,-0.1653,0,0,0,0,0,0,0,0,0,0,0,0,0,-0.1303,-0.1303,-0.1358,-0.1359,-0.136,-0.1466,-0.1468,-0.147,-0.1558,-0.1559,-0.156,-0.156,-0.1649,-0.1651,-0.1653,0,0,0,0,0,0,0,0,0,0,0,0,0,-0.1364,-0.1303,-0.1357,-0.1413,-0.1419,-0.1466,-0.1468,-0.1471,-0.1558,-0.1559,-0.156,-0.1561,-0.1648,-0.1651,-0.1654,-0.1655,0,0,-0.1662,-0.1664,0,0,0,0,0,0,0,0,-0.136,-0.1367,-0.1404,-0.141,-0.1416,-0.1496,-0.1482,-0.153,-0.1558,-0.151,-0.156,-0.1561,-0.1593,-0.1601,-0.1625,-0.1659,-0.1663,-0.1663,-0.1664,-0.1665,-0.1666,0,0,0,0,0,0,0,-0.1356,-0.1363,-0.1405,-0.1405,-0.1412,-0.1459,-0.1469,-0.1492,-0.1548,-0.1514,-0.152,-0.1525,-0.1597,-0.1622,-0.1628,-0.1664,-0.1663,-0.1665,-0.1667,-0.1668,-0.1678,-0.1677,0,0,0,0,0,0,-0.133,-0.1358,-0.1401,-0.1408,-0.1385,-0.1459,-0.147,-0.1473,-0.1549,-0.156,-0.1524,-0.1529,-0.1617,-0.1625,-0.1631,-0.1572,-0.1665,-0.1668,-0.167,-0.168,-0.1678,-0.1676,0,0,0,0,0,0,-0.1328,-0.1332,-0.1397,-0.1383,-0.1394,-0.1458,-0.1462,-0.1475,-0.1494,-0.1556,-0.1568,-0.1529,-0.1618,-0.1627,-0.1634,-0.1578,-0.1669,-0.1672,-0.1681,-0.1679,-0.1677,-0.1494,0,0,0,0,0,0,-0.1326,-0.1331,-0.132,-0.138,-0.1393,-0.1399,-0.1461,-0.1476,-0.1494,-0.1501,-0.1563,-0.1573,-0.162,-0.163,-0.1637,-0.1584,-0.1674,-0.1683,-0.168,-0.1678,-0.1501,-0.1485,-0.1472,0,0,0,0,0,-0.1323,-0.1295,-0.1319,-0.1324,-0.1377,-0.1397,-0.1407,-0.146,-0.1493,-0.1484,-0.1529,-0.1571,-0.1619,-0.163,-0.164,-0.1586,-0.1684,-0.1681,-0.1678,-0.1508,-0.1489,-0.1472,0,0,0,0,0,0,-0.1254,-0.1303,-0.133,-0.1316,-0.1344,-0.141,-0.1402,-0.1446,-0.1479,-0.1481,-0.1552,-0.1564,-0.1552,-0.1599,-0.1611,-0.1585,-0.1658,-0.1657,-0.1526,-0.1508,-0.1494,-0.1461,-0.1676,0,0,0,0,0,-0.1234,-0.1232,-0.1283,-0.1266,-0.1275,-0.1338,-0.1352,-0.1387,-0.1426,-0.1443,-0.1487,-0.1529,-0.1547,-0.1551,-0.1585,-0.1564,-0.156,-0.1539,-0.1524,-0.151,-0.1492,-0.1434,-0.1411,-0.1666,-0.1666,-0.1666,0,0,-0.1199,-0.1226,-0.1223,-0.1252,-0.1279,-0.1259,-0.1349,-0.1352,-0.1333,-0.1443,-0.1426,-0.148,-0.1534,-0.1514,-0.1511,-0.1542,-0.1431,-0.1506,-0.1494,-0.1483,-0.1428,-0.1403,-0.138,-0.1664,-0.1664,-0.1664,0,0,-0.1111,-0.115,-0.1112,-0.1128,-0.1155,-0.1193,-0.1186,-0.124,-0.1262,-0.1261,-0.1328,-0.1345,-0.1385,-0.1402,-0.1418,-0.1341,-0.1361,-0.1357,-0.1241,-0.1183,-0.1161,-0.1141,-0.107,-0.1046,-0.134,-0.134,-0.1339,0,-0.106,-0.1028,-0.11,-0.1062,-0.1053,-0.1149,-0.1093,-0.1126,-0.1175,-0.1171,-0.1228,-0.1267,-0.1325,-0.1277,-0.1263,-0.1301,-0.127,-0.1297,-0.1158,-0.1139,-0.1122,-0.1055,-0.103,-0.133,-0.1331,-0.1332,-0.1333,0,-0.0946,-0.0917,-0.089,-0.0877,-0.088,-0.0849,-0.0899,-0.0905,-0.0953,-0.0988,-0.0976,-0.1057,-0.1074,-0.1097,-0.1162,-0.1068,-0.1083,-0.1146,-0.119,-0.1084,-0.1021,-0.0998,-0.1317,-0.132,-0.1323,-0.1325,0,0,-0.0819,-0.081,-0.0794,-0.0762,-0.0779,-0.0768,-0.073,-0.0721,-0.0687,-0.075,-0.0691,-0.0758,-0.0818,-0.0842,-0.0916,-0.0887,-0.075,-0.0955,-0.0957,-0.086,-0.0589,-0.0587,-0.0563,-0.0775,-0.0771,-0.0768,-0.0581,0,-0.0694,-0.0592,-0.0621,-0.0515,-0.0468,-0.0532,-0.049,-0.0502,-0.0535,-0.0508,-0.0584,-0.0572,-0.0712,-0.0711,-0.07,-0.0746,-0.0687,-0.0793,-0.073,-0.0728,-0.0718,-0.0536,-0.0556,-0.039,-0.0559,-0.0556,-0.0553,0,-0.0555,-0.0512,-0.039,-0.0346,-0.0328,-0.0283,-0.024,-0.0216,-0.022,-0.0242,-0.0249,-0.032,-0.0298,-0.0439,-0.041,-0.0464,-0.0501,-0.0543,-0.0537,-0.0585,-0.0683,-0.0534,-0.0343,-0.0643,-0.0519,-0.0522,-0.0524,0,-0.0432,-0.0344,-0.0245,-0.0226,-0.0193,-0.0145,-0.0128,-0.0125,-0.0086,-0.0059,-0.0014,-0.0039,-0.0012,-0.0068,-0.018,-0.0269,-0.0132,-0.0268,-0.0286,-0.0286,-0.0318,-0.0328,-0.039,-0.0205,-0.0205,-0.0206,-0.0206,0,-0.0292,-0.021,-0.018,-0.0126,-0.0014,-0.0028,0.0082,0.0084,0.0132,0.0227,0.0139,0.0231,0.0085,0.0111,-0.0031,-0.0049,0.0003,-0.0205,-0.0215,-0.0254,-0.026,-0.0542,-0.0718,-0.0199,-0.02,-0.0202,-0.0203,0,-0.0179,-0.0152,-0.0046,0.0017,0.0045,0.012,0.0199,0.0271,0.0309,0.0445,0.0476,0.0496,0.0547,0.0412,0.0363,0.0186,-0.0015,0.0103,0.0075,0.0056,-0.0303,-0.0466,-0.0494,-0.0629,0.0117,0.0118,0.0119,0,-0.0115,-0.0045,0.005,0.0109,0.0142,0.024,0.0307,0.0353,0.044,0.0617,0.0711,0.0813,0.0914,0.0855,0.0597,0.0445,0.0124,0.0258,0.0054,-0.0261,-0.0452,-0.0591,-0.0716,0.01,0.0101,0.0102,0.0103,0,-0.0007,0.0024,0.0097,0.0214,0.0303,0.0407,0.0518,0.0623,0.0721,0.0887,0.1129,0.1248,0.1201,0.1085,0.0836,0.0633,0.002,0.0268,-0.0042,-0.043,-0.0596,-0.0752,-0.0092,0.011,0.011,0.0109,0.0109,0.0108,0.0058,0.012,0.0206,0.032,0.0425,0.0573,0.0695,0.0855,0.1076,0.1376,0.1453,0.1747,0.1461,0.1146,0.0809,0.0137,0.0113,-0.0137,-0.0286,-0.0381,-0.0585,0.0104,0.0262,0.0262,0.0262,0.0262,0.0262,0,0.0128,0.0191,0.0301,0.0444,0.0575,0.0614,0.083,0.0997,0.1308,0.166,0.1922,0.2056,0.161,0.1088,0.0239,-0.0317,-0.0594,-0.0659,-0.091,-0.0998,-0.0353,-0.0439,-0.0446,-0.0446,-0.0445,-0.0445,-0.0445,-0.0444,0.0167,0.0271,0.0328,0.0544,0.0653,0.0857,0.1,0.1289,0.1587,0.2093,0.2408,0.2597,0.2235,0.0562,-0.0664,-0.0979,-0.1416,-0.1467,-0.1681,-0.1337,-0.1303,-0.1272,-0.1396,-0.1603,-0.1604,-0.2306,-0.2313,-0.2319]}],[{"header":{"parameterUnit":"m.s-1","parameterCategory":2,"la1":30.2991,"la2":30.254,"lo1":-89.0895,"lo2":-89.0444,"dy":0.0017,"dx":0.0017,"nx":28,"ny":28,"refTime":"2024-06-25T03:00:00:Z","depth":"2","parameterNumber":2,"parameterNumberName":"U-component_of_CURRENTS"},"data":[0,0,0,0,0,0,0,0,0,0,0,0,0,0,0,0,0,0,0,0,0,0,0,0,0,0,0,0,0,0,0,0,0,0,0,0,0,0,0,0,0,0,0,0,0,0,0,0,0,0,0,0,0,0,0,0,0,0,0.3036,0.3038,0,0.3132,0.3133,0.3133,0.3188,0.3189,0.319,0.3191,0.3288,0.3289,0.3291,0,0,0,0,0,0,0,0,0,0,0,0,0,0.3057,0.3054,0.3036,0.3038,0.304,0.3132,0.3133,0.3133,0.3188,0.3189,0.319,0.3191,0.3287,0.3289,0.3291,0,0,0,0,0,0,0,0,0,0,0,0,0,0.3081,0.3053,0.3035,0.3085,0.3091,0.3132,0.3133,0.3133,0.3187,0.3189,0.319,0.3192,0.3286,0.3289,0.3291,0.3277,0,0,0.3299,0.33,0,0,0,0,0,0,0,0,0.3079,0.3079,0.3075,0.3081,0.3088,0.3157,0.3176,0.3184,0.3187,0.3141,0.3191,0.3193,0.3249,0.3254,0.3257,0.3281,0.3285,0.3299,0.3301,0.3302,0.3302,0,0,0,0,0,0,0,0.3077,0.3076,0.3065,0.3078,0.3086,0.3157,0.3159,0.3178,0.3179,0.3145,0.3152,0.3176,0.3251,0.3254,0.326,0.3287,0.3299,0.3301,0.3303,0.3304,0.3412,0.3414,0,0,0,0,0,0,0.3072,0.3073,0.3062,0.3069,0.3097,0.3155,0.3158,0.3126,0.3179,0.3191,0.3175,0.3179,0.3249,0.3257,0.3263,0.3458,0.3302,0.3304,0.3305,0.3411,0.3413,0.3414,0,0,0,0,0,0,0.3071,0.3068,0.3058,0.3085,0.3089,0.3153,0.3118,0.3128,0.3194,0.3203,0.3213,0.324,0.3251,0.326,0.3379,0.3454,0.3305,0.3307,0.3409,0.3411,0.3413,0.3713,0,0,0,0,0,0,0.307,0.3065,0.3068,0.3081,0.3088,0.3132,0.3118,0.3129,0.3207,0.3214,0.326,0.3267,0.3252,0.3376,0.3382,0.3455,0.3309,0.3408,0.341,0.3413,0.3701,0.3725,0.3745,0,0,0,0,0,0.307,0.3123,0.3065,0.3067,0.3076,0.3136,0.3146,0.3192,0.321,0.3254,0.3317,0.3269,0.3392,0.3383,0.3388,0.3463,0.3406,0.341,0.3413,0.3691,0.372,0.3745,0,0,0,0,0,0,0.3171,0.3132,0.3072,0.3111,0.3121,0.315,0.3238,0.3229,0.3308,0.3339,0.3334,0.3348,0.3474,0.3409,0.3397,0.3485,0.3371,0.3375,0.358,0.3607,0.3628,0.3615,0.3311,0,0,0,0,0,0.317,0.3184,0.3145,0.3186,0.3204,0.321,0.3253,0.3257,0.3318,0.3355,0.3405,0.343,0.3473,0.3503,0.3527,0.3597,0.3571,0.3622,0.3645,0.3664,0.3649,0.3725,0.3755,0.3425,0.3425,0.3424,0,0,0.3223,0.3212,0.3217,0.3207,0.3234,0.3282,0.3244,0.333,0.3411,0.3353,0.354,0.3541,0.3513,0.3615,0.3654,0.3585,0.375,0.3668,0.3687,0.3659,0.3732,0.3765,0.3794,0.3427,0.3426,0.3426,0,0,0.3348,0.3322,0.3357,0.3356,0.3383,0.3405,0.3438,0.3482,0.3557,0.3665,0.3669,0.3724,0.3782,0.3795,0.3795,0.3934,0.3884,0.3919,0.4021,0.4099,0.4128,0.4154,0.4209,0.4237,0.3911,0.3911,0.3912,0,0.3403,0.3392,0.3394,0.342,0.3447,0.347,0.3512,0.361,0.3699,0.3742,0.376,0.3832,0.3858,0.3934,0.4007,0.3993,0.4019,0.3949,0.4138,0.4161,0.4182,0.4232,0.4259,0.3926,0.3924,0.3923,0.3922,0,0.3512,0.3495,0.3557,0.3563,0.3621,0.3675,0.3756,0.3867,0.3944,0.3958,0.4072,0.4106,0.4129,0.4141,0.4144,0.4276,0.4246,0.4191,0.4095,0.4236,0.4277,0.43,0.3947,0.3942,0.3938,0.3934,0,0,0.361,0.3607,0.3618,0.3588,0.3668,0.3716,0.3918,0.4012,0.4119,0.4192,0.4312,0.4378,0.4361,0.4357,0.4358,0.4408,0.4643,0.4389,0.4387,0.4486,0.4831,0.4644,0.465,0.4656,0.466,0.4664,0.482,0,0.3661,0.3686,0.3706,0.377,0.3777,0.3851,0.4034,0.4137,0.4248,0.4408,0.4417,0.4508,0.4465,0.4495,0.4578,0.4608,0.4708,0.4604,0.4637,0.4636,0.449,0.4671,0.434,0.4436,0.4842,0.4845,0.4848,0,0.3723,0.3713,0.3777,0.3782,0.381,0.3891,0.4097,0.4243,0.4452,0.4534,0.4603,0.4641,0.4752,0.4717,0.4841,0.479,0.4869,0.4865,0.4871,0.4592,0.449,0.4343,0.446,0.4885,0.4882,0.4879,0.4877,0,0.3748,0.3744,0.38,0.3802,0.3889,0.3961,0.4035,0.424,0.4378,0.4599,0.4679,0.4796,0.4873,0.4959,0.5011,0.4966,0.5149,0.5072,0.4964,0.4951,0.4608,0.4555,0.5223,0.5222,0.5222,0.5222,0.5221,0,0.3758,0.3755,0.3796,0.3803,0.3886,0.3951,0.4101,0.422,0.4435,0.4547,0.473,0.4811,0.4948,0.5064,0.5109,0.5106,0.5242,0.5012,0.4992,0.4701,0.4657,0.496,0.4928,0.5228,0.5226,0.5225,0.5224,0,0.3733,0.3788,0.3797,0.3859,0.3895,0.3948,0.4064,0.4134,0.4377,0.4558,0.4625,0.4866,0.4971,0.5101,0.5235,0.5176,0.5202,0.5194,0.4833,0.4764,0.4932,0.4913,0.5054,0.5049,0.5045,0.5042,0.5039,0,0.3688,0.3719,0.3812,0.3831,0.3837,0.3908,0.3948,0.4115,0.415,0.451,0.4535,0.4785,0.487,0.502,0.5007,0.5065,0.5184,0.4733,0.455,0.4956,0.4923,0.491,0.4897,0.4249,0.424,0.4233,0.4227,0,0.355,0.3653,0.3664,0.3712,0.373,0.3762,0.3765,0.3824,0.4039,0.4189,0.4337,0.4468,0.4675,0.4547,0.4666,0.4633,0.4675,0.457,0.5152,0.4309,0.42,0.4165,0.4179,0.416,0.4166,0.4171,0.4175,0.4178,0.3427,0.341,0.3476,0.3524,0.3552,0.3547,0.3494,0.3527,0.3618,0.3774,0.3964,0.4046,0.4158,0.4112,0.4043,0.4034,0.4316,0.4111,0.4134,0.4166,0.4011,0.3896,0.3771,0.3775,0.3779,0.3782,0.3785,0,0.3179,0.322,0.3237,0.3266,0.3227,0.3377,0.3318,0.3254,0.3245,0.3404,0.349,0.3284,0.3267,0.3449,0.3333,0.3318,0.3302,0.3183,0.3143,0.3214,0.3276,0.3074,0.2587,0.2582,0.2578,0.2574,0,0,0.3039,0.298,0.3024,0.294,0.3026,0.2897,0.287,0.2854,0.2847,0.2805,0.2817,0.304,0.3278,0.283,0.2824,0.2685,0.2909,0.2589,0.3564,0.3585,0.364,0.3844,0.3616,0,0,0,0,0]},{"header":{"parameterUnit":"m.s-1","parameterCategory":2,"la1":30.2991,"la2":30.254,"lo1":-89.0895,"lo2":-89.0444,"dy":0.0017,"dx":0.0017,"nx":28,"ny":28,"refTime":"2024-06-25T03:00:00:Z","depth":"2","parameterNumber":3,"parameterNumberName":"V-component_of_CURRENTS"},"data":[0,0,0,0,0,0,0,0,0,0,0,0,0,0,0,0,0,0,0,0,0,0,0,0,0,0,0,0,0,0,0,0,0,0,0,0,0,0,0,0,0,0,0,0,0,0,0,0,0,0,0,0,0,0,0,0,0,0,0.021,0.0209,0,0.0115,0.0114,0.0113,-0.0039,-0.0042,-0.0045,-0.0047,-0.026,-0.0263,-0.0266,0,0,0,0,0,0,0,0,0,0,0,0,0,0.0119,0.0123,0.0211,0.0209,0.0208,0.0115,0.0114,0.0113,-0.0038,-0.0042,-0.0045,-0.0049,-0.0259,-0.0263,-0.0266,0,0,0,0,0,0,0,0,0,0,0,0,0,0.0107,0.0124,0.0211,0.012,0.011,0.0116,0.0114,0.0113,-0.0037,-0.0042,-0.0046,-0.005,-0.0258,-0.0263,-0.0267,-0.0206,0,0,-0.028,-0.0282,0,0,0,0,0,0,0,0,0.0108,0.0111,0.0134,0.0126,0.0116,0.0044,0.0003,-0.0,-0.0036,0.0021,-0.0047,-0.0052,-0.0167,-0.018,-0.0183,-0.0216,-0.0225,-0.0281,-0.0283,-0.0285,-0.0287,0,0,0,0,0,0,0,0.0109,0.0113,0.0175,0.0133,0.0122,0.0034,0.003,0.0002,-0.0048,0.0016,0.0004,-0.0008,-0.0174,-0.0178,-0.019,-0.0228,-0.0281,-0.0284,-0.0287,-0.0289,-0.0342,-0.0341,0,0,0,0,0,0,0.0131,0.0116,0.0178,0.0172,0.0099,0.004,0.0035,0.0073,-0.0046,-0.0068,-0.0005,-0.0015,-0.0169,-0.0184,-0.0198,-0.0293,-0.0285,-0.0289,-0.0292,-0.0343,-0.0342,-0.0341,0,0,0,0,0,0,0.013,0.014,0.0181,0.0135,0.0134,0.0047,0.0091,0.0073,-0.0004,-0.006,-0.0085,-0.0073,-0.0173,-0.0192,-0.0311,-0.0297,-0.0291,-0.0295,-0.0345,-0.0343,-0.0341,-0.0381,0,0,0,0,0,0,0.0129,0.0142,0.0146,0.014,0.0138,0.0159,0.0094,0.0075,-0.0001,-0.0018,-0.0124,-0.0145,-0.0178,-0.0304,-0.0315,-0.0303,-0.0299,-0.0346,-0.0344,-0.0342,-0.0381,-0.0381,-0.038,0,0,0,0,0,0.0127,0.0113,0.0149,0.0153,0.016,0.0159,0.015,0.0072,-0.0,-0.0018,-0.0134,-0.0145,-0.0294,-0.031,-0.0322,-0.0311,-0.0348,-0.0345,-0.0342,-0.0381,-0.0381,-0.038,0,0,0,0,0,0,0.0039,0.0098,0.0134,0.0134,0.0154,0.0132,0.0075,0.0047,-0.0051,-0.0102,-0.0174,-0.0201,-0.0287,-0.0286,-0.0301,-0.0308,-0.0302,-0.0302,-0.0327,-0.0327,-0.0326,-0.0231,-0.0302,0,0,0,0,0,0.0049,0.0074,0.0123,0.0125,0.0125,0.0106,0.0077,0.0053,-0.0018,-0.0068,-0.0162,-0.0229,-0.0261,-0.0299,-0.0336,-0.0362,-0.0348,-0.0342,-0.0342,-0.0342,-0.0267,-0.0296,-0.0292,-0.0332,-0.0332,-0.0332,0,0,0.0017,0.0049,0.0061,0.0111,0.0102,0.0127,0.0073,0.0032,0.0019,-0.0072,-0.0199,-0.0257,-0.0274,-0.0316,-0.0344,-0.0332,-0.0329,-0.0339,-0.0339,-0.0262,-0.0293,-0.0289,-0.0286,-0.033,-0.033,-0.033,0,0,-0.0008,-0.0001,0.0037,0.0072,0.0088,0.0073,0.0057,0.0019,-0.0046,-0.0115,-0.0189,-0.0236,-0.0327,-0.0315,-0.0314,-0.0316,-0.0341,-0.034,-0.0256,-0.0289,-0.0286,-0.0283,-0.0294,-0.0292,-0.0325,-0.0325,-0.0325,0,-0.0041,0.0045,0.0035,0.0096,0.0117,0.0051,0.0105,0.0041,-0.0048,-0.0065,-0.0163,-0.0236,-0.0287,-0.0256,-0.0265,-0.0309,-0.0346,-0.0277,-0.0291,-0.0288,-0.0284,-0.0296,-0.0293,-0.0326,-0.0326,-0.0326,-0.0326,0,0.0012,0.0076,0.0072,0.016,0.0163,0.0178,0.0147,0.0076,-0.0026,-0.0039,-0.0095,-0.0178,-0.0195,-0.0217,-0.025,-0.0222,-0.0266,-0.0314,-0.0302,-0.0283,-0.0296,-0.0292,-0.0329,-0.0328,-0.0327,-0.0327,0,0,-0.0001,0.0105,0.0118,0.0188,0.0214,0.0222,0.0176,0.0181,0.0153,0.0052,0.005,-0.0003,-0.0055,-0.005,-0.0113,-0.0117,-0.0158,-0.0206,-0.0208,-0.0228,-0.0245,-0.0304,-0.0306,-0.0262,-0.0261,-0.026,-0.0278,0,0.0072,0.0194,0.0234,0.0321,0.0374,0.0345,0.0316,0.0296,0.0219,0.0164,0.0127,0.009,0.0003,-0.0024,-0.0054,-0.0126,-0.0144,-0.0146,-0.0242,-0.0241,-0.031,-0.0301,-0.0271,-0.0288,-0.0274,-0.0274,-0.0273,0,0.0158,0.0227,0.0331,0.0434,0.0452,0.0476,0.045,0.0435,0.0378,0.0327,0.0301,0.0223,0.0219,0.0108,0.0027,0.0,-0.0104,-0.0158,-0.0164,-0.0177,-0.0292,-0.0294,-0.0282,-0.0267,-0.0267,-0.0268,-0.0268,0,0.016,0.0312,0.0378,0.0421,0.0487,0.0512,0.0528,0.0492,0.0497,0.044,0.0457,0.0373,0.0358,0.0216,0.0077,0.0022,-0.0019,-0.0116,-0.0247,-0.0253,-0.0205,-0.0209,-0.0159,-0.0159,-0.0159,-0.0159,-0.0159,0,0.0233,0.0308,0.0381,0.0426,0.0494,0.0543,0.0592,0.0576,0.0594,0.0667,0.0542,0.0596,0.0377,0.0306,0.0129,-0.003,0.0006,-0.0188,-0.0251,-0.0223,-0.0228,-0.0179,-0.0181,-0.016,-0.016,-0.0159,-0.0159,0,0.0239,0.0287,0.0376,0.0464,0.0496,0.0535,0.0672,0.0728,0.0721,0.081,0.0815,0.0775,0.0691,0.0472,0.0288,0.0079,-0.0085,-0.0154,-0.0094,-0.015,-0.0314,-0.0318,-0.0307,-0.0309,-0.0311,-0.0313,-0.0314,0,0.0263,0.0293,0.0383,0.0433,0.0485,0.0575,0.0667,0.0748,0.0874,0.0961,0.1064,0.0994,0.0991,0.0687,0.0324,-0.0002,-0.0043,-0.0207,-0.029,-0.0261,-0.0324,-0.0325,-0.0326,-0.0252,-0.0253,-0.0253,-0.0254,0,0.0311,0.0302,0.0378,0.047,0.0576,0.0731,0.0918,0.1033,0.1166,0.1271,0.1459,0.1452,0.1138,0.0826,0.0323,0.0099,-0.0172,-0.0232,-0.0194,-0.0234,-0.0216,-0.0276,-0.0277,-0.0258,-0.0258,-0.0257,-0.0257,-0.0257,0.0339,0.0388,0.0465,0.0572,0.0696,0.0934,0.1116,0.1339,0.1569,0.1752,0.1749,0.1723,0.1304,0.0669,0.0275,-0.0178,-0.0176,-0.0352,-0.0347,-0.0343,-0.0348,-0.0336,-0.0399,-0.0399,-0.04,-0.04,-0.04,0,0.0426,0.0494,0.059,0.0762,0.0949,0.0981,0.1328,0.1524,0.1846,0.1912,0.2017,0.1625,0.124,0.0762,0.0083,-0.0323,-0.0343,-0.0439,-0.0374,-0.0367,-0.0362,-0.0366,-0.0423,-0.0424,-0.0425,-0.0425,0,0,0.0484,0.062,0.0694,0.1001,0.1099,0.1424,0.1638,0.1853,0.1997,0.2085,0.202,0.1889,0.1326,0.0836,0.0311,-0.0058,-0.0122,-0.013,-0.0074,0.007,0.0081,-0.0279,-0.0275,0,0,0,0,0]}],[{"header":{"parameterUnit":"m.s-1","parameterCategory":2,"la1":30.2991,"la2":30.254,"lo1":-89.0895,"lo2":-89.0444,"dy":0.0017,"dx":0.0017,"nx":28,"ny":28,"refTime":"2024-06-25T03:00:00:Z","depth":"4","parameterNumber":2,"parameterNumberName":"U-component_of_CURRENTS"},"data":[0,0,0,0,0,0,0,0,0,0,0,0,0,0,0,0,0,0,0,0,0,0,0,0,0,0,0,0,0,0,0,0,0,0,0,0,0,0,0,0,0,0,0,0,0,0,0,0,0,0,0,0,0,0,0,0,0,0,0.113,0.1131,0,0.1223,0.1224,0.1225,0.1293,0.1294,0.1294,0.1295,0.1389,0.1391,0.1393,0,0,0,0,0,0,0,0,0,0,0,0,0,0.1031,0.1032,0.113,0.1132,0.1133,0.1222,0.1224,0.1225,0.1293,0.1294,0.1295,0.1295,0.1389,0.1391,0.1393,0,0,0,0,0,0,0,0,0,0,0,0,0,0.1093,0.1033,0.113,0.1178,0.1184,0.1222,0.1224,0.1225,0.1293,0.1294,0.1295,0.1296,0.1388,0.1391,0.1393,0.139,0,0,0.1402,0.1403,0,0,0,0,0,0,0,0,0.1089,0.1096,0.117,0.1175,0.1181,0.1248,0.1223,0.1281,0.1293,0.125,0.1295,0.1296,0.1342,0.1349,0.1362,0.1394,0.1398,0.1402,0.1404,0.1405,0.1406,0,0,0,0,0,0,0,0.1085,0.1093,0.1166,0.1171,0.1178,0.1202,0.1211,0.1235,0.1288,0.1254,0.1259,0.1271,0.1345,0.136,0.1365,0.14,0.1402,0.1405,0.1406,0.1407,0.1606,0.161,0,0,0,0,0,0,0.1073,0.1088,0.1163,0.1169,0.1138,0.1203,0.1213,0.1225,0.1288,0.1299,0.127,0.1274,0.1354,0.1362,0.1369,0.1496,0.1405,0.1408,0.1409,0.1603,0.1607,0.1611,0,0,0,0,0,0,0.1071,0.1079,0.1159,0.1132,0.1144,0.1203,0.1216,0.1226,0.1278,0.1301,0.1312,0.1315,0.1355,0.1365,0.143,0.1495,0.1409,0.1412,0.1598,0.1604,0.1609,0.1668,0,0,0,0,0,0,0.1068,0.1078,0.1099,0.1131,0.1145,0.1202,0.1215,0.1227,0.1281,0.1288,0.1342,0.135,0.1357,0.1426,0.1433,0.1497,0.1414,0.1594,0.1601,0.1607,0.1661,0.1675,0.1686,0,0,0,0,0,0.1064,0.1073,0.1099,0.1109,0.1166,0.1203,0.1213,0.1257,0.1283,0.1308,0.1355,0.135,0.1475,0.143,0.1438,0.1504,0.1591,0.1599,0.1607,0.1656,0.1672,0.1686,0,0,0,0,0,0,0.1037,0.1083,0.1111,0.1136,0.118,0.1216,0.1247,0.1277,0.1334,0.1356,0.1376,0.1387,0.1483,0.1484,0.1434,0.1588,0.1541,0.155,0.1576,0.1591,0.1603,0.1657,0.1416,0,0,0,0,0,0.1042,0.1065,0.1114,0.1136,0.1166,0.1216,0.1245,0.1279,0.1324,0.1352,0.139,0.1448,0.1517,0.1543,0.1597,0.1654,0.1695,0.1713,0.1725,0.1735,0.1789,0.1883,0.1908,0.1638,0.1638,0.1637,0,0,0.104,0.1066,0.1083,0.1134,0.1177,0.1234,0.1237,0.1292,0.1342,0.1352,0.1439,0.1495,0.1547,0.1633,0.1676,0.1641,0.1834,0.1745,0.1753,0.1803,0.1894,0.192,0.1943,0.1643,0.1642,0.1641,0,0,0.1046,0.1075,0.1111,0.1161,0.1231,0.1257,0.1282,0.1347,0.1384,0.147,0.1507,0.1599,0.1681,0.1734,0.1771,0.1882,0.1905,0.191,0.2,0.2089,0.2112,0.2132,0.2207,0.2234,0.1902,0.1902,0.1902,0,0.1048,0.1106,0.1127,0.1189,0.1242,0.1276,0.1347,0.1379,0.1457,0.1504,0.1515,0.1719,0.1738,0.1873,0.1924,0.191,0.1971,0.1926,0.2103,0.2125,0.2145,0.2216,0.2245,0.1906,0.1905,0.1905,0.1905,0,0.1095,0.1164,0.1191,0.1282,0.1329,0.1393,0.1447,0.1489,0.1547,0.1609,0.1769,0.1832,0.1962,0.1982,0.1992,0.2158,0.2158,0.2111,0.2056,0.2175,0.2243,0.2272,0.1911,0.191,0.1909,0.1908,0,0,0.1043,0.1199,0.1216,0.1285,0.1397,0.1427,0.1504,0.1593,0.1658,0.1775,0.1901,0.2046,0.2122,0.2176,0.2208,0.2289,0.2456,0.228,0.2283,0.2341,0.2677,0.244,0.2448,0.2448,0.2454,0.2458,0.2661,0,0.1089,0.1219,0.1288,0.1409,0.1481,0.1545,0.1613,0.1694,0.1768,0.1881,0.2005,0.2152,0.2179,0.2268,0.2366,0.2445,0.2542,0.2408,0.2569,0.2575,0.2336,0.2476,0.2476,0.2683,0.2689,0.2694,0.2698,0,0.1115,0.1203,0.1338,0.1484,0.1524,0.16,0.1707,0.1783,0.1927,0.2001,0.2185,0.2283,0.2483,0.2456,0.271,0.2635,0.2696,0.2737,0.2743,0.2533,0.2392,0.2547,0.275,0.2746,0.2742,0.2738,0.2735,0,0.1034,0.1227,0.1331,0.139,0.1554,0.1621,0.1715,0.1842,0.1903,0.2109,0.2195,0.2443,0.2587,0.2732,0.2836,0.281,0.3063,0.3004,0.2858,0.2841,0.2963,0.2938,0.319,0.3189,0.3189,0.3188,0.3188,0,0.1025,0.1109,0.1316,0.1359,0.1476,0.1622,0.1741,0.1831,0.2003,0.2113,0.2289,0.2411,0.2674,0.2822,0.2902,0.297,0.3123,0.2932,0.2895,0.298,0.2956,0.2982,0.2955,0.3196,0.3194,0.3193,0.3191,0,0.0902,0.1052,0.1151,0.1354,0.1431,0.1508,0.1727,0.1803,0.1983,0.2128,0.2214,0.2457,0.2671,0.284,0.307,0.3025,0.3105,0.3074,0.3175,0.3131,0.2822,0.2797,0.2985,0.2979,0.2974,0.2969,0.2965,0,0.0847,0.0898,0.109,0.116,0.1264,0.143,0.1535,0.1755,0.1845,0.2126,0.2182,0.2453,0.2602,0.2752,0.293,0.3068,0.3026,0.3049,0.2952,0.2865,0.2812,0.2794,0.2777,0.2957,0.2956,0.2954,0.2953,0,0.072,0.0792,0.0867,0.1012,0.114,0.1268,0.1459,0.1513,0.1783,0.1948,0.2128,0.227,0.2483,0.2669,0.2773,0.2853,0.3029,0.2994,0.3005,0.2915,0.2833,0.2781,0.277,0.2934,0.2937,0.2939,0.294,0,0.06,0.0621,0.0738,0.086,0.0992,0.1104,0.1226,0.141,0.154,0.1871,0.1936,0.2214,0.2466,0.2556,0.2648,0.271,0.2702,0.2632,0.2662,0.2684,0.2487,0.2332,0.2296,0,0,0,0,0,0.05,0.0541,0.061,0.0738,0.0851,0.0959,0.1171,0.1309,0.1579,0.1654,0.1799,0.1985,0.2182,0.2317,0.2335,0.2514,0.2691,0.252,0.2617,0.2832,0.2853,0.2644,0,0,0,0,0,0,0.0447,0.0499,0.0555,0.0613,0.0686,0.0825,0.0963,0.1155,0.1225,0.1503,0.1625,0.1835,0.2051,0.2147,0.2282,0.2326,0.2344,0.2693,0.2688,0.282,0.2839,0.2856,0.2649,0,0,0,0,0]},{"header":{"parameterUnit":"m.s-1","parameterCategory":2,"la1":30.2991,"la2":30.254,"lo1":-89.0895,"lo2":-89.0444,"dy":0.0017,"dx":0.0017,"nx":28,"ny":28,"refTime":"2024-06-25T03:00:00:Z","depth":"4","parameterNumber":3,"parameterNumberName":"V-component_of_CURRENTS"},"data":[0,0,0,0,0,0,0,0,0,0,0,0,0,0,0,0,0,0,0,0,0,0,0,0,0,0,0,0,0,0,0,0,0,0,0,0,0,0,0,0,0,0,0,0,0,0,0,0,0,0,0,0,0,0,0,0,0,0,0.0644,0.0644,0,0.0612,0.0611,0.061,0.0571,0.057,0.057,0.057,0.0523,0.0522,0.0521,0,0,0,0,0,0,0,0,0,0,0,0,0,0.0639,0.0639,0.0644,0.0644,0.0644,0.0612,0.0611,0.061,0.0571,0.057,0.057,0.057,0.0523,0.0522,0.052,0,0,0,0,0,0,0,0,0,0,0,0,0,0.0623,0.0639,0.0644,0.0624,0.0623,0.0612,0.0611,0.061,0.0571,0.057,0.057,0.057,0.0524,0.0522,0.052,0.0514,0,0,0.0515,0.0514,0,0,0,0,0,0,0,0,0.0624,0.0622,0.0627,0.0626,0.0624,0.06,0.0592,0.0579,0.0571,0.0585,0.057,0.057,0.0551,0.0547,0.0534,0.0512,0.051,0.0515,0.0514,0.0513,0.0513,0,0,0,0,0,0,0,0.0625,0.0623,0.0626,0.0627,0.0625,0.0607,0.0604,0.0589,0.0565,0.0584,0.0582,0.0587,0.0549,0.0536,0.0533,0.0509,0.0515,0.0513,0.0512,0.0512,0.046,0.0459,0,0,0,0,0,0,0.0642,0.0625,0.0627,0.0626,0.0629,0.0608,0.0604,0.0603,0.0565,0.0561,0.0587,0.0585,0.0539,0.0535,0.0531,0.0525,0.0513,0.0512,0.0511,0.046,0.046,0.0459,0,0,0,0,0,0,0.0642,0.0642,0.0628,0.0629,0.0627,0.0609,0.0608,0.0603,0.0599,0.0569,0.0563,0.059,0.0538,0.0533,0.0525,0.0522,0.0511,0.0509,0.0461,0.046,0.046,0.0511,0,0,0,0,0,0,0.0641,0.0642,0.0652,0.063,0.0627,0.0629,0.0608,0.0603,0.0604,0.0602,0.057,0.0564,0.0538,0.0528,0.0524,0.052,0.0508,0.0461,0.046,0.046,0.0509,0.0512,0.0514,0,0,0,0,0,0.0641,0.0655,0.0653,0.0654,0.064,0.063,0.0626,0.0609,0.0605,0.0604,0.0585,0.0566,0.052,0.0527,0.0522,0.0518,0.0461,0.0461,0.046,0.0508,0.0511,0.0514,0,0,0,0,0,0,0.0655,0.0652,0.0649,0.066,0.0652,0.0625,0.0631,0.062,0.0603,0.0606,0.0572,0.0565,0.0553,0.053,0.0539,0.0497,0.0483,0.0481,0.0521,0.0524,0.0526,0.0505,0.0507,0,0,0,0,0,0.0666,0.068,0.0665,0.0678,0.0676,0.0657,0.0655,0.0643,0.0626,0.0619,0.0598,0.0571,0.0543,0.0532,0.0507,0.0495,0.0439,0.0484,0.0486,0.0488,0.0466,0.0385,0.0378,0.0457,0.0457,0.0457,0,0,0.0674,0.0679,0.0685,0.0684,0.0676,0.067,0.0653,0.0656,0.0645,0.0618,0.0605,0.0585,0.0542,0.0523,0.0514,0.0506,0.0439,0.0487,0.049,0.0465,0.0384,0.0376,0.0369,0.0456,0.0456,0.0456,0,0,0.069,0.0703,0.071,0.0709,0.071,0.0697,0.0702,0.0684,0.0669,0.0659,0.0629,0.0603,0.0578,0.0533,0.0508,0.0506,0.0456,0.0509,0.0503,0.0427,0.042,0.0412,0.0343,0.0329,0.0508,0.0509,0.0509,0,0.0699,0.0708,0.0711,0.0716,0.0721,0.0711,0.0711,0.0692,0.0674,0.0662,0.0662,0.0596,0.0569,0.0516,0.0513,0.0509,0.0464,0.0503,0.043,0.0421,0.0413,0.0343,0.0327,0.0511,0.0511,0.051,0.051,0,0.0713,0.0722,0.073,0.0733,0.0736,0.0743,0.0723,0.0719,0.0711,0.0688,0.065,0.0605,0.0561,0.055,0.053,0.0462,0.045,0.0446,0.0425,0.0408,0.0336,0.0318,0.0514,0.0513,0.0513,0.0512,0,0,0.0724,0.0735,0.0741,0.0749,0.075,0.0757,0.0742,0.0722,0.0719,0.0682,0.0658,0.0592,0.0573,0.054,0.051,0.0439,0.035,0.0423,0.0418,0.0357,0.0185,0.0185,0.0165,0.0343,0.034,0.0337,0.0163,0,0.0731,0.0755,0.0752,0.077,0.0778,0.0769,0.0764,0.075,0.0729,0.0707,0.0635,0.0613,0.0568,0.0564,0.0476,0.0386,0.0304,0.0397,0.0205,0.0199,0.0204,0.0145,0.0328,0.015,0.0145,0.0142,0.014,0,0.0745,0.0761,0.0789,0.08,0.0804,0.0813,0.082,0.0818,0.0775,0.0758,0.0699,0.0655,0.0545,0.0526,0.031,0.0377,0.0275,0.0195,0.0187,0.0149,0.0165,0.0164,0.0107,0.011,0.0112,0.0115,0.0117,0,0.0782,0.0787,0.0821,0.0829,0.084,0.0848,0.0857,0.084,0.0852,0.0803,0.0799,0.0659,0.0613,0.0441,0.0265,0.029,0.0028,0.0045,-0.0062,-0.0063,-0.003,-0.0021,-0.0122,-0.0122,-0.0122,-0.0121,-0.0121,0,0.0801,0.0825,0.0846,0.0873,0.0909,0.0905,0.0949,0.0931,0.0924,0.0939,0.0842,0.0802,0.0592,0.0427,0.0255,0.0027,0.0008,-0.0096,-0.0121,-0.0002,0.0013,-0.0042,-0.0031,-0.0128,-0.0126,-0.0125,-0.0124,0,0.0833,0.0853,0.09,0.0927,0.0938,0.0981,0.1028,0.1054,0.1039,0.1049,0.1041,0.0898,0.0683,0.0448,0.017,0.0036,-0.0186,-0.0256,-0.0126,-0.0135,-0.0222,-0.0206,-0.0402,-0.0403,-0.0405,-0.0406,-0.0407,0,0.0845,0.088,0.0958,0.0997,0.1012,0.1071,0.1113,0.1124,0.1147,0.11,0.1094,0.0915,0.0789,0.038,0.0138,-0.0217,-0.0247,-0.0359,-0.0296,-0.0253,-0.0258,-0.0239,-0.0221,-0.0409,-0.041,-0.041,-0.0411,0,0.0859,0.0914,0.0958,0.1051,0.1111,0.1176,0.1221,0.1238,0.1248,0.1239,0.1128,0.093,0.0687,0.0382,0.0106,-0.0141,-0.0291,-0.0375,-0.0373,-0.0315,-0.0265,-0.0264,-0.0245,-0.0416,-0.0415,-0.0414,-0.0414,0,0.0872,0.092,0.1003,0.1071,0.1167,0.1227,0.1255,0.1255,0.1277,0.1212,0.1173,0.0922,0.0786,0.042,0.0157,-0.0087,-0.013,-0.0184,-0.0192,-0.019,-0.007,0.0028,-0.0083,0,0,0,0,0,0.0859,0.0913,0.0996,0.1086,0.119,0.1243,0.1298,0.1317,0.1319,0.1253,0.1214,0.0989,0.0617,0.0454,0.0207,0.0123,-0.0183,-0.0172,-0.0252,-0.0444,-0.0438,-0.0333,0,0,0,0,0,0,0.0855,0.0936,0.0986,0.1084,0.1151,0.126,0.1302,0.1303,0.1256,0.1227,0.1026,0.0951,0.0578,0.0762,0.0212,0.0138,0.0059,-0.0341,-0.0346,-0.0447,-0.0442,-0.0437,-0.0327,0,0,0,0,0]}]]